Year,Month,Day,Hour,Minute,Value (Times are PST for temperature in C)
2010,04,10,00,00,0.70
2010,04,10,00,01,0.70
2010,04,10,00,02,0.70
2010,04,10,00,03,0.70
2010,04,10,00,04,0.70
2010,04,10,00,05,0.70
2010,04,10,00,06,0.70
2010,04,10,00,07,0.70
2010,04,10,00,08,0.70
2010,04,10,00,09,0.70
2010,04,10,00,10,0.70
2010,04,10,00,11,0.70
2010,04,10,00,12,0.60
2010,04,10,00,13,0.60
2010,04,10,00,14,0.60
2010,04,10,00,15,0.60
2010,04,10,00,16,0.60
2010,04,10,00,17,0.60
2010,04,10,00,18,0.60
2010,04,10,00,19,0.50
2010,04,10,00,20,0.50
2010,04,10,00,21,0.50
2010,04,10,00,22,0.50
2010,04,10,00,23,0.40
2010,04,10,00,24,0.40
2010,04,10,00,25,0.40
2010,04,10,00,26,0.40
2010,04,10,00,27,0.40
2010,04,10,00,28,0.40
2010,04,10,00,29,0.40
2010,04,10,00,30,0.40
2010,04,10,00,31,0.30
2010,04,10,00,32,0.30
2010,04,10,00,33,0.30
2010,04,10,00,34,0.30
2010,04,10,00,35,0.30
2010,04,10,00,36,0.30
2010,04,10,00,37,0.30
2010,04,10,00,38,0.30
2010,04,10,00,39,0.30
2010,04,10,00,40,0.30
2010,04,10,00,41,0.30
2010,04,10,00,42,0.20
2010,04,10,00,43,0.20
2010,04,10,00,44,0.20
2010,04,10,00,45,0.20
2010,04,10,00,46,0.20
2010,04,10,00,47,0.20
2010,04,10,00,48,0.20
2010,04,10,00,49,0.20
2010,04,10,00,50,0.20
2010,04,10,00,51,0.20
2010,04,10,00,52,0.20
2010,04,10,00,53,0.20
2010,04,10,00,54,0.20
2010,04,10,00,55,0.20
2010,04,10,00,56,0.20
2010,04,10,00,57,0.20
2010,04,10,00,58,0.20
2010,04,10,00,59,0.20
2010,04,10,01,00,0.20
2010,04,10,01,01,0.20
2010,04,10,01,02,0.20
2010,04,10,01,03,0.20
2010,04,10,01,04,0.20
2010,04,10,01,05,0.20
2010,04,10,01,06,0.20
2010,04,10,01,07,0.20
2010,04,10,01,08,0.20
2010,04,10,01,09,0.20
2010,04,10,01,10,0.20
2010,04,10,01,11,0.20
2010,04,10,01,12,0.20
2010,04,10,01,13,0.20
2010,04,10,01,14,0.20
2010,04,10,01,15,0.20
2010,04,10,01,16,0.20
2010,04,10,01,17,0.20
2010,04,10,01,18,0.20
2010,04,10,01,19,0.10
2010,04,10,01,20,0.10
2010,04,10,01,21,0.10
2010,04,10,01,22,0.10
2010,04,10,01,23,0.10
2010,04,10,01,24,0.10
2010,04,10,01,25,0.10
2010,04,10,01,26,0.10
2010,04,10,01,27,0.00
2010,04,10,01,28,0.00
2010,04,10,01,29,0.00
2010,04,10,01,30,0.00
2010,04,10,01,31,0.00
2010,04,10,01,32,-0.10
2010,04,10,01,33,-0.10
2010,04,10,01,34,-0.10
2010,04,10,01,35,-0.10
2010,04,10,01,36,-0.10
2010,04,10,01,37,-0.10
2010,04,10,01,38,-0.10
2010,04,10,01,39,-0.10
2010,04,10,01,40,-0.10
2010,04,10,01,41,-0.10
2010,04,10,01,42,-0.10
2010,04,10,01,43,-0.10
2010,04,10,01,44,-0.10
2010,04,10,01,45,-0.10
2010,04,10,01,46,-0.10
2010,04,10,01,47,-0.10
2010,04,10,01,48,-0.10
2010,04,10,01,49,-0.10
2010,04,10,01,50,-0.10
2010,04,10,01,51,-0.10
2010,04,10,01,52,-0.10
2010,04,10,01,53,-0.10
2010,04,10,01,54,-0.10
2010,04,10,01,55,-0.10
2010,04,10,01,56,-0.10
2010,04,10,01,57,-0.10
2010,04,10,01,58,-0.10
2010,04,10,01,59,-0.20
2010,04,10,02,00,-0.20
2010,04,10,02,01,-0.20
2010,04,10,02,02,-0.20
2010,04,10,02,03,-0.20
2010,04,10,02,04,-0.20
2010,04,10,02,05,-0.20
2010,04,10,02,06,-0.20
2010,04,10,02,07,-0.20
2010,04,10,02,08,-0.20
2010,04,10,02,09,-0.20
2010,04,10,02,10,-0.20
2010,04,10,02,11,-0.30
2010,04,10,02,12,-0.30
2010,04,10,02,13,-0.30
2010,04,10,02,14,-0.30
2010,04,10,02,15,-0.30
2010,04,10,02,16,-0.30
2010,04,10,02,17,-0.30
2010,04,10,02,18,-0.30
2010,04,10,02,19,-0.30
2010,04,10,02,20,-0.30
2010,04,10,02,21,-0.30
2010,04,10,02,22,-0.30
2010,04,10,02,23,-0.30
2010,04,10,02,24,-0.30
2010,04,10,02,25,-0.40
2010,04,10,02,26,-0.40
2010,04,10,02,27,-0.40
2010,04,10,02,28,-0.40
2010,04,10,02,29,-0.40
2010,04,10,02,30,-0.40
2010,04,10,02,31,-0.40
2010,04,10,02,32,-0.40
2010,04,10,02,33,-0.40
2010,04,10,02,34,-0.40
2010,04,10,02,35,-0.40
2010,04,10,02,36,-0.50
2010,04,10,02,37,-0.40
2010,04,10,02,38,-0.40
2010,04,10,02,39,-0.50
2010,04,10,02,40,-0.50
2010,04,10,02,41,-0.50
2010,04,10,02,42,-0.50
2010,04,10,02,43,-0.60
2010,04,10,02,44,-0.60
2010,04,10,02,45,-0.60
2010,04,10,02,46,-0.60
2010,04,10,02,47,-0.60
2010,04,10,02,48,-0.60
2010,04,10,02,49,-0.60
2010,04,10,02,50,-0.60
2010,04,10,02,51,-0.60
2010,04,10,02,52,-0.70
2010,04,10,02,53,-0.70
2010,04,10,02,54,-0.70
2010,04,10,02,55,-0.70
2010,04,10,02,56,-0.70
2010,04,10,02,57,-0.70
2010,04,10,02,58,-0.70
2010,04,10,02,59,-0.70
2010,04,10,03,00,-0.70
2010,04,10,03,01,-0.70
2010,04,10,03,02,-0.70
2010,04,10,03,03,-0.70
2010,04,10,03,04,-0.70
2010,04,10,03,05,-0.70
2010,04,10,03,06,-0.70
2010,04,10,03,07,-0.70
2010,04,10,03,08,-0.70
2010,04,10,03,09,-0.70
2010,04,10,03,10,-0.70
2010,04,10,03,11,-0.70
2010,04,10,03,12,-0.70
2010,04,10,03,13,-0.70
2010,04,10,03,14,-0.70
2010,04,10,03,15,-0.70
2010,04,10,03,16,-0.70
2010,04,10,03,17,-0.70
2010,04,10,03,18,-0.70
2010,04,10,03,19,-0.70
2010,04,10,03,20,-0.70
2010,04,10,03,21,-0.60
2010,04,10,03,22,-0.70
2010,04,10,03,23,-0.70
2010,04,10,03,24,-0.70
2010,04,10,03,25,-0.70
2010,04,10,03,26,-0.70
2010,04,10,03,27,-0.70
2010,04,10,03,28,-0.70
2010,04,10,03,29,-0.70
2010,04,10,03,30,-0.70
2010,04,10,03,31,-0.70
2010,04,10,03,32,-0.70
2010,04,10,03,33,-0.70
2010,04,10,03,34,-0.70
2010,04,10,03,35,-0.70
2010,04,10,03,36,-0.70
2010,04,10,03,37,-0.70
2010,04,10,03,38,-0.80
2010,04,10,03,39,-0.80
2010,04,10,03,40,-0.80
2010,04,10,03,41,-0.80
2010,04,10,03,42,-0.80
2010,04,10,03,43,-0.80
2010,04,10,03,44,-0.80
2010,04,10,03,45,-0.80
2010,04,10,03,46,-0.80
2010,04,10,03,47,-0.90
2010,04,10,03,48,-0.90
2010,04,10,03,49,-0.90
2010,04,10,03,50,-0.90
2010,04,10,03,51,-0.90
2010,04,10,03,52,-0.90
2010,04,10,03,53,-0.90
2010,04,10,03,54,-0.90
2010,04,10,03,55,-0.90
2010,04,10,03,56,-1.00
2010,04,10,03,57,-1.00
2010,04,10,03,58,-1.00
2010,04,10,03,59,-1.00
2010,04,10,04,00,-1.10
2010,04,10,04,01,-1.10
2010,04,10,04,02,-1.10
2010,04,10,04,03,-1.10
2010,04,10,04,04,-1.10
2010,04,10,04,05,-1.10
2010,04,10,04,06,-1.10
2010,04,10,04,07,-1.10
2010,04,10,04,08,-1.10
2010,04,10,04,09,-1.20
2010,04,10,04,10,-1.20
2010,04,10,04,11,-1.20
2010,04,10,04,12,-1.20
2010,04,10,04,13,-1.20
2010,04,10,04,14,-1.20
2010,04,10,04,15,-1.20
2010,04,10,04,16,-1.20
2010,04,10,04,17,-1.20
2010,04,10,04,18,-1.20
2010,04,10,04,19,-1.20
2010,04,10,04,20,-1.20
2010,04,10,04,21,-1.20
2010,04,10,04,22,-1.20
2010,04,10,04,23,-1.20
2010,04,10,04,24,-1.20
2010,04,10,04,25,-1.20
2010,04,10,04,26,-1.20
2010,04,10,04,27,-1.20
2010,04,10,04,28,-1.20
2010,04,10,04,29,-1.20
2010,04,10,04,30,-1.20
2010,04,10,04,31,-1.20
2010,04,10,04,32,-1.20
2010,04,10,04,33,-1.20
2010,04,10,04,34,-1.20
2010,04,10,04,35,-1.20
2010,04,10,04,36,-1.10
2010,04,10,04,37,-1.10
2010,04,10,04,38,-1.10
2010,04,10,04,39,-1.10
2010,04,10,04,40,-1.10
2010,04,10,04,41,-1.10
2010,04,10,04,42,-1.10
2010,04,10,04,43,-1.10
2010,04,10,04,44,-1.10
2010,04,10,04,45,-1.10
2010,04,10,04,46,-1.10
2010,04,10,04,47,-1.10
2010,04,10,04,48,-1.10
2010,04,10,04,49,-1.10
2010,04,10,04,50,-1.10
2010,04,10,04,51,-1.10
2010,04,10,04,52,-1.10
2010,04,10,04,53,-1.10
2010,04,10,04,54,-1.10
2010,04,10,04,55,-1.10
2010,04,10,04,56,-1.10
2010,04,10,04,57,-1.10
2010,04,10,04,58,-1.10
2010,04,10,04,59,-1.10
2010,04,10,05,00,-1.10
2010,04,10,05,01,-1.10
2010,04,10,05,02,-1.10
2010,04,10,05,03,-1.10
2010,04,10,05,04,-1.20
2010,04,10,05,05,-1.20
2010,04,10,05,06,-1.20
2010,04,10,05,07,-1.20
2010,04,10,05,08,-1.20
2010,04,10,05,09,-1.20
2010,04,10,05,10,-1.20
2010,04,10,05,11,-1.20
2010,04,10,05,12,-1.20
2010,04,10,05,13,-1.20
2010,04,10,05,14,-1.20
2010,04,10,05,15,-1.20
2010,04,10,05,16,-1.20
2010,04,10,05,17,-1.30
2010,04,10,05,18,-1.30
2010,04,10,05,19,-1.30
2010,04,10,05,20,-1.30
2010,04,10,05,21,-1.30
2010,04,10,05,22,-1.30
2010,04,10,05,23,-1.30
2010,04,10,05,24,-1.30
2010,04,10,05,25,-1.30
2010,04,10,05,26,-1.40
2010,04,10,05,27,-1.30
2010,04,10,05,28,-1.30
2010,04,10,05,29,-1.30
2010,04,10,05,30,-1.30
2010,04,10,05,31,-1.30
2010,04,10,05,32,-1.30
2010,04,10,05,33,-1.30
2010,04,10,05,34,-1.30
2010,04,10,05,35,-1.30
2010,04,10,05,36,-1.30
2010,04,10,05,37,-1.30
2010,04,10,05,38,-1.40
2010,04,10,05,39,-1.40
2010,04,10,05,40,-1.40
2010,04,10,05,41,-1.40
2010,04,10,05,42,-1.40
2010,04,10,05,43,-1.40
2010,04,10,05,44,-1.40
2010,04,10,05,45,-1.40
2010,04,10,05,46,-1.40
2010,04,10,05,47,-1.40
2010,04,10,05,48,-1.40
2010,04,10,05,49,-1.40
2010,04,10,05,50,-1.40
2010,04,10,05,51,-1.40
2010,04,10,05,52,-1.40
2010,04,10,05,53,-1.40
2010,04,10,05,54,-1.40
2010,04,10,05,55,-1.40
2010,04,10,05,56,-1.40
2010,04,10,05,57,-1.40
2010,04,10,05,58,-1.30
2010,04,10,05,59,-1.30
2010,04,10,06,00,-1.30
2010,04,10,06,01,-1.30
2010,04,10,06,02,-1.30
2010,04,10,06,03,-1.30
2010,04,10,06,04,-1.30
2010,04,10,06,05,-1.30
2010,04,10,06,06,-1.30
2010,04,10,06,07,-1.30
2010,04,10,06,08,-1.30
2010,04,10,06,09,-1.30
2010,04,10,06,10,-1.30
2010,04,10,06,11,-1.30
2010,04,10,06,12,-1.30
2010,04,10,06,13,-1.30
2010,04,10,06,14,-1.30
2010,04,10,06,15,-1.30
2010,04,10,06,16,-1.30
2010,04,10,06,17,-1.30
2010,04,10,06,18,-1.30
2010,04,10,06,19,-1.30
2010,04,10,06,20,-1.30
2010,04,10,06,21,-1.30
2010,04,10,06,22,-1.30
2010,04,10,06,23,-1.30
2010,04,10,06,24,-1.20
2010,04,10,06,25,-1.20
2010,04,10,06,26,-1.20
2010,04,10,06,27,-1.20
2010,04,10,06,28,-1.20
2010,04,10,06,29,-1.20
2010,04,10,06,30,-1.20
2010,04,10,06,31,-1.20
2010,04,10,06,32,-1.20
2010,04,10,06,33,-1.10
2010,04,10,06,34,-1.10
2010,04,10,06,35,-1.10
2010,04,10,06,36,-1.10
2010,04,10,06,37,-1.10
2010,04,10,06,38,-1.10
2010,04,10,06,39,-1.10
2010,04,10,06,40,-1.10
2010,04,10,06,41,-1.10
2010,04,10,06,42,-1.10
2010,04,10,06,43,-1.10
2010,04,10,06,44,-1.10
2010,04,10,06,45,-1.10
2010,04,10,06,46,-1.10
2010,04,10,06,47,-1.10
2010,04,10,06,48,-1.10
2010,04,10,06,49,-1.10
2010,04,10,06,50,-1.10
2010,04,10,06,51,-1.10
2010,04,10,06,52,-1.10
2010,04,10,06,53,-1.10
2010,04,10,06,54,-1.10
2010,04,10,06,55,-1.10
2010,04,10,06,56,-1.10
2010,04,10,06,57,-1.10
2010,04,10,06,58,-1.10
2010,04,10,06,59,-1.10
2010,04,10,07,00,-1.10
2010,04,10,07,01,-1.00
2010,04,10,07,02,-1.00
2010,04,10,07,03,-1.00
2010,04,10,07,04,-1.00
2010,04,10,07,05,-0.90
2010,04,10,07,06,-0.90
2010,04,10,07,07,-0.90
2010,04,10,07,08,-0.90
2010,04,10,07,09,-0.90
2010,04,10,07,10,-0.90
2010,04,10,07,11,-0.90
2010,04,10,07,12,-0.90
2010,04,10,07,13,-0.90
2010,04,10,07,14,-0.80
2010,04,10,07,15,-0.80
2010,04,10,07,16,-0.80
2010,04,10,07,17,-0.80
2010,04,10,07,18,-0.80
2010,04,10,07,19,-0.80
2010,04,10,07,20,-0.80
2010,04,10,07,21,-0.80
2010,04,10,07,22,-0.80
2010,04,10,07,23,-0.80
2010,04,10,07,24,-0.80
2010,04,10,07,25,-0.80
2010,04,10,07,26,-0.80
2010,04,10,07,27,-0.80
2010,04,10,07,28,-0.80
2010,04,10,07,29,-0.80
2010,04,10,07,30,-0.80
2010,04,10,07,31,-0.70
2010,04,10,07,32,-0.80
2010,04,10,07,33,-0.70
2010,04,10,07,34,-0.80
2010,04,10,07,35,-0.80
2010,04,10,07,36,-0.80
2010,04,10,07,37,-0.70
2010,04,10,07,38,-0.70
2010,04,10,07,39,-0.70
2010,04,10,07,40,-0.70
2010,04,10,07,41,-0.70
2010,04,10,07,42,-0.70
2010,04,10,07,43,-0.70
2010,04,10,07,44,-0.70
2010,04,10,07,45,-0.70
2010,04,10,07,46,-0.70
2010,04,10,07,47,-0.70
2010,04,10,07,48,-0.70
2010,04,10,07,49,-0.70
2010,04,10,07,50,-0.70
2010,04,10,07,51,-0.70
2010,04,10,07,52,-0.70
2010,04,10,07,53,-0.70
2010,04,10,07,54,-0.70
2010,04,10,07,55,-0.70
2010,04,10,07,56,-0.70
2010,04,10,07,57,-0.70
2010,04,10,07,58,-0.70
2010,04,10,07,59,-0.70
2010,04,10,08,00,-0.70
2010,04,10,08,01,-0.70
2010,04,10,08,02,-0.70
2010,04,10,08,03,-0.70
2010,04,10,08,04,-0.70
2010,04,10,08,05,-0.70
2010,04,10,08,06,-0.70
2010,04,10,08,07,-0.70
2010,04,10,08,08,-0.70
2010,04,10,08,09,-0.70
2010,04,10,08,10,-0.70
2010,04,10,08,11,-0.80
2010,04,10,08,12,-0.80
2010,04,10,08,13,-0.80
2010,04,10,08,14,-0.80
2010,04,10,08,15,-0.80
2010,04,10,08,16,-0.80
2010,04,10,08,17,-0.80
2010,04,10,08,18,-0.80
2010,04,10,08,19,-0.80
2010,04,10,08,20,-0.80
2010,04,10,08,21,-0.80
2010,04,10,08,22,-0.80
2010,04,10,08,23,-0.80
2010,04,10,08,24,-0.80
2010,04,10,08,25,-0.80
2010,04,10,08,26,-0.80
2010,04,10,08,27,-0.80
2010,04,10,08,28,-0.80
2010,04,10,08,29,-0.80
2010,04,10,08,30,-0.80
2010,04,10,08,31,-0.80
2010,04,10,08,32,-0.80
2010,04,10,08,33,-0.80
2010,04,10,08,34,-0.80
2010,04,10,08,35,-0.80
2010,04,10,08,36,-0.80
2010,04,10,08,37,-0.80
2010,04,10,08,38,-0.80
2010,04,10,08,39,-0.80
2010,04,10,08,40,-0.70
2010,04,10,08,41,-0.70
2010,04,10,08,42,-0.70
2010,04,10,08,43,-0.70
2010,04,10,08,44,-0.70
2010,04,10,08,45,-0.70
2010,04,10,08,46,-0.70
2010,04,10,08,47,-0.70
2010,04,10,08,48,-0.70
2010,04,10,08,49,-0.70
2010,04,10,08,50,-0.60
2010,04,10,08,51,-0.70
2010,04,10,08,52,-0.60
2010,04,10,08,53,-0.60
2010,04,10,08,54,-0.60
2010,04,10,08,55,-0.60
2010,04,10,08,56,-0.60
2010,04,10,08,57,-0.60
2010,04,10,08,58,-0.60
2010,04,10,08,59,-0.60
2010,04,10,09,00,-0.60
2010,04,10,09,01,-0.60
2010,04,10,09,02,-0.50
2010,04,10,09,03,-0.50
2010,04,10,09,04,-0.40
2010,04,10,09,05,-0.40
2010,04,10,09,06,-0.40
2010,04,10,09,07,-0.30
2010,04,10,09,08,-0.30
2010,04,10,09,09,-0.30
2010,04,10,09,10,-0.30
2010,04,10,09,11,-0.30
2010,04,10,09,12,-0.30
2010,04,10,09,13,-0.30
2010,04,10,09,14,-0.30
2010,04,10,09,15,-0.30
2010,04,10,09,16,-0.30
2010,04,10,09,17,-0.20
2010,04,10,09,18,-0.20
2010,04,10,09,19,-0.20
2010,04,10,09,20,-0.20
2010,04,10,09,21,-0.20
2010,04,10,09,22,-0.20
2010,04,10,09,23,-0.20
2010,04,10,09,24,-0.20
2010,04,10,09,25,-0.20
2010,04,10,09,26,-0.20
2010,04,10,09,27,-0.20
2010,04,10,09,28,-0.10
2010,04,10,09,29,-0.10
2010,04,10,09,30,-0.10
2010,04,10,09,31,0.00
2010,04,10,09,32,0.00
2010,04,10,09,33,0.10
2010,04,10,09,34,0.10
2010,04,10,09,35,0.20
2010,04,10,09,36,0.20
2010,04,10,09,37,0.20
2010,04,10,09,38,0.30
2010,04,10,09,39,0.30
2010,04,10,09,40,0.30
2010,04,10,09,41,0.40
2010,04,10,09,42,0.40
2010,04,10,09,43,0.50
2010,04,10,09,44,0.50
2010,04,10,09,45,0.60
2010,04,10,09,46,0.60
2010,04,10,09,47,0.60
2010,04,10,09,48,0.70
2010,04,10,09,49,0.70
2010,04,10,09,50,0.70
2010,04,10,09,51,0.80
2010,04,10,09,52,0.80
2010,04,10,09,53,0.80
2010,04,10,09,54,0.80
2010,04,10,09,55,0.80
2010,04,10,09,56,0.80
2010,04,10,09,57,0.80
2010,04,10,09,58,0.80
2010,04,10,09,59,0.90
2010,04,10,10,00,0.90
2010,04,10,10,01,0.90
2010,04,10,10,02,1.10
2010,04,10,10,03,1.10
2010,04,10,10,04,1.20
2010,04,10,10,05,1.30
2010,04,10,10,06,1.30
2010,04,10,10,07,1.40
2010,04,10,10,08,1.60
2010,04,10,10,09,1.70
2010,04,10,10,10,1.70
2010,04,10,10,11,1.80
2010,04,10,10,12,1.90
2010,04,10,10,13,1.90
2010,04,10,10,14,2.10
2010,04,10,10,15,2.20
2010,04,10,10,16,2.30
2010,04,10,10,17,2.30
2010,04,10,10,18,2.50
2010,04,10,10,19,2.60
2010,04,10,10,20,2.70
2010,04,10,10,21,2.70
2010,04,10,10,22,2.80
2010,04,10,10,23,2.80
2010,04,10,10,24,2.90
2010,04,10,10,25,3.00
2010,04,10,10,26,3.10
2010,04,10,10,27,3.10
2010,04,10,10,28,3.20
2010,04,10,10,29,3.20
2010,04,10,10,30,3.20
2010,04,10,10,31,3.30
2010,04,10,10,32,3.30
2010,04,10,10,33,3.30
2010,04,10,10,34,3.30
2010,04,10,10,35,3.40
2010,04,10,10,36,3.40
2010,04,10,10,37,3.50
2010,04,10,10,38,3.60
2010,04,10,10,39,3.70
2010,04,10,10,40,3.70
2010,04,10,10,41,3.80
2010,04,10,10,42,3.80
2010,04,10,10,43,3.90
2010,04,10,10,44,4.10
2010,04,10,10,45,4.20
2010,04,10,10,46,4.20
2010,04,10,10,47,4.30
2010,04,10,10,48,4.40
2010,04,10,10,49,4.50
2010,04,10,10,50,4.70
2010,04,10,10,51,4.80
2010,04,10,10,52,5.10
2010,04,10,10,53,5.40
2010,04,10,10,54,5.60
2010,04,10,10,55,5.80
2010,04,10,10,56,6.10
2010,04,10,10,57,6.20
2010,04,10,10,58,6.30
2010,04,10,10,59,6.40
2010,04,10,11,00,6.40
2010,04,10,11,01,6.50
2010,04,10,11,02,6.60
2010,04,10,11,03,6.60
2010,04,10,11,04,6.70
2010,04,10,11,05,6.80
2010,04,10,11,06,6.80
2010,04,10,11,07,6.90
2010,04,10,11,08,6.90
2010,04,10,11,09,6.90
2010,04,10,11,10,6.90
2010,04,10,11,11,6.90
2010,04,10,11,12,6.90
2010,04,10,11,13,7.00
2010,04,10,11,14,7.00
2010,04,10,11,15,7.10
2010,04,10,11,16,7.10
2010,04,10,11,17,7.20
2010,04,10,11,18,7.20
2010,04,10,11,19,7.20
2010,04,10,11,20,7.20
2010,04,10,11,21,7.30
2010,04,10,11,22,7.30
2010,04,10,11,23,7.30
2010,04,10,11,24,7.30
2010,04,10,11,25,7.30
2010,04,10,11,26,7.30
2010,04,10,11,30,7.30
2010,04,10,12,35,8.30
2010,04,10,12,36,8.40
2010,04,10,12,37,8.40
2010,04,10,12,38,8.40
2010,04,10,12,39,8.40
2010,04,10,12,40,8.50
2010,04,10,12,41,8.50
2010,04,10,12,42,8.60
2010,04,10,12,43,8.60
2010,04,10,12,44,8.50
2010,04,10,12,45,8.50
2010,04,10,12,46,8.50
2010,04,10,12,47,8.60
2010,04,10,12,48,8.60
2010,04,10,12,49,8.60
2010,04,10,12,50,8.70
2010,04,10,12,51,8.70
2010,04,10,12,52,8.70
2010,04,10,12,53,8.70
2010,04,10,12,54,8.80
2010,04,10,12,55,8.80
2010,04,10,12,56,8.80
2010,04,10,12,57,8.80
2010,04,10,12,58,8.90
2010,04,10,12,59,9.00
2010,04,10,13,00,9.10
2010,04,10,13,01,9.00
2010,04,10,13,02,9.10
2010,04,10,13,03,9.10
2010,04,10,13,04,9.20
2010,04,10,13,05,9.20
2010,04,10,13,06,9.20
2010,04,10,13,07,9.20
2010,04,10,13,08,9.20
2010,04,10,13,09,9.20
2010,04,10,13,10,9.30
2010,04,10,13,11,9.30
2010,04,10,13,12,9.40
2010,04,10,13,13,9.40
2010,04,10,13,14,9.40
2010,04,10,13,15,9.30
2010,04,10,13,16,9.30
2010,04,10,13,17,9.30
2010,04,10,13,18,9.30
2010,04,10,13,19,9.40
2010,04,10,13,20,9.40
2010,04,10,13,21,9.30
2010,04,10,13,22,9.30
2010,04,10,13,23,9.30
2010,04,10,13,24,9.30
2010,04,10,13,25,9.30
2010,04,10,13,26,9.20
2010,04,10,13,27,9.20
2010,04,10,13,28,9.20
2010,04,10,13,29,9.20
2010,04,10,13,30,9.10
2010,04,10,13,31,9.10
2010,04,10,13,32,9.20
2010,04,10,13,33,9.20
2010,04,10,13,34,9.30
2010,04,10,13,35,9.30
2010,04,10,13,36,9.30
2010,04,10,13,37,9.30
2010,04,10,13,38,9.30
2010,04,10,13,39,9.40
2010,04,10,13,40,9.40
2010,04,10,13,41,9.40
2010,04,10,13,42,9.40
2010,04,10,13,43,9.30
2010,04,10,13,44,9.30
2010,04,10,13,45,9.30
2010,04,10,13,46,9.30
2010,04,10,13,47,9.40
2010,04,10,13,48,9.40
2010,04,10,13,49,9.60
2010,04,10,13,50,9.60
2010,04,10,13,51,9.60
2010,04,10,13,52,9.60
2010,04,10,13,53,9.60
2010,04,10,13,54,9.60
2010,04,10,13,55,9.60
2010,04,10,13,56,9.60
2010,04,10,13,57,9.60
2010,04,10,13,58,9.60
2010,04,10,13,59,9.60
2010,04,10,14,00,9.60
2010,04,10,14,01,9.60
2010,04,10,14,02,9.60
2010,04,10,14,03,9.60
2010,04,10,14,04,9.60
2010,04,10,14,05,9.60
2010,04,10,14,06,9.70
2010,04,10,14,07,9.70
2010,04,10,14,08,9.70
2010,04,10,14,09,9.70
2010,04,10,14,10,9.80
2010,04,10,14,11,9.80
2010,04,10,14,12,9.80
2010,04,10,14,13,9.80
2010,04,10,14,14,9.80
2010,04,10,14,15,9.90
2010,04,10,14,16,9.90
2010,04,10,14,17,9.90
2010,04,10,14,18,9.90
2010,04,10,14,19,10.00
2010,04,10,14,20,10.10
2010,04,10,14,21,10.10
2010,04,10,14,22,10.20
2010,04,10,14,23,10.20
2010,04,10,14,24,10.20
2010,04,10,14,25,10.20
2010,04,10,14,26,10.20
2010,04,10,14,27,10.10
2010,04,10,14,28,10.10
2010,04,10,14,29,10.10
2010,04,10,14,30,10.10
2010,04,10,14,31,10.10
2010,04,10,14,32,10.10
2010,04,10,14,33,10.20
2010,04,10,14,34,10.20
2010,04,10,14,35,10.30
2010,04,10,14,36,10.30
2010,04,10,14,37,10.40
2010,04,10,14,38,10.40
2010,04,10,14,39,10.40
2010,04,10,14,40,10.40
2010,04,10,14,41,10.40
2010,04,10,14,42,10.40
2010,04,10,14,43,10.40
2010,04,10,14,44,10.40
2010,04,10,14,45,10.40
2010,04,10,14,46,10.40
2010,04,10,14,47,10.40
2010,04,10,14,48,10.40
2010,04,10,14,49,10.40
2010,04,10,14,50,10.30
2010,04,10,14,51,10.30
2010,04,10,14,52,10.30
2010,04,10,14,53,10.40
2010,04,10,14,54,10.40
2010,04,10,14,55,10.50
2010,04,10,14,56,10.50
2010,04,10,14,57,10.60
2010,04,10,14,58,10.60
2010,04,10,14,59,10.70
2010,04,10,15,00,10.70
2010,04,10,15,01,10.80
2010,04,10,15,02,10.80
2010,04,10,15,03,10.80
2010,04,10,15,04,10.80
2010,04,10,15,05,10.70
2010,04,10,15,06,10.70
2010,04,10,15,07,10.70
2010,04,10,15,08,10.70
2010,04,10,15,09,10.70
2010,04,10,15,10,10.70
2010,04,10,15,11,10.70
2010,04,10,15,12,10.70
2010,04,10,15,13,10.70
2010,04,10,15,14,10.70
2010,04,10,15,15,10.70
2010,04,10,15,16,10.60
2010,04,10,15,17,10.60
2010,04,10,15,18,10.60
2010,04,10,15,19,10.70
2010,04,10,15,20,10.70
2010,04,10,15,21,10.60
2010,04,10,15,22,10.60
2010,04,10,15,23,10.60
2010,04,10,15,24,10.60
2010,04,10,15,25,10.60
2010,04,10,15,26,10.60
2010,04,10,15,27,10.60
2010,04,10,15,28,10.60
2010,04,10,15,29,10.60
2010,04,10,15,30,10.70
2010,04,10,15,31,10.70
2010,04,10,15,32,10.70
2010,04,10,15,33,10.70
2010,04,10,15,34,10.70
2010,04,10,15,35,10.70
2010,04,10,15,36,10.70
2010,04,10,15,37,10.70
2010,04,10,15,38,10.80
2010,04,10,15,39,10.70
2010,04,10,15,40,10.70
2010,04,10,15,41,10.70
2010,04,10,15,42,10.80
2010,04,10,15,43,10.80
2010,04,10,15,44,10.90
2010,04,10,15,45,10.90
2010,04,10,15,46,10.90
2010,04,10,15,47,10.80
2010,04,10,15,48,10.80
2010,04,10,15,49,10.80
2010,04,10,15,50,10.80
2010,04,10,15,51,10.70
2010,04,10,15,52,10.70
2010,04,10,15,53,10.70
2010,04,10,15,54,10.70
2010,04,10,15,55,10.70
2010,04,10,15,56,10.70
2010,04,10,15,57,10.80
2010,04,10,15,58,10.80
2010,04,10,15,59,10.70
2010,04,10,16,00,10.70
2010,04,10,16,01,10.70
2010,04,10,16,02,10.70
2010,04,10,16,03,10.70
2010,04,10,16,04,10.60
2010,04,10,16,05,10.60
2010,04,10,16,06,10.60
2010,04,10,16,07,10.60
2010,04,10,16,08,10.60
2010,04,10,16,09,10.60
2010,04,10,16,10,10.70
2010,04,10,16,11,10.70
2010,04,10,16,12,10.80
2010,04,10,16,13,10.80
2010,04,10,16,14,10.80
2010,04,10,16,15,10.80
2010,04,10,16,16,10.80
2010,04,10,16,17,10.80
2010,04,10,16,18,10.90
2010,04,10,16,19,10.90
2010,04,10,16,20,10.90
2010,04,10,16,21,10.80
2010,04,10,16,22,10.80
2010,04,10,16,23,10.80
2010,04,10,16,24,10.80
2010,04,10,16,25,10.80
2010,04,10,16,26,10.80
2010,04,10,16,27,10.70
2010,04,10,16,28,10.70
2010,04,10,16,29,10.70
2010,04,10,16,30,10.60
2010,04,10,16,31,10.60
2010,04,10,16,32,10.60
2010,04,10,16,33,10.70
2010,04,10,16,34,10.70
2010,04,10,16,35,10.80
2010,04,10,16,36,10.80
2010,04,10,16,37,10.80
2010,04,10,16,38,10.80
2010,04,10,16,39,10.80
2010,04,10,16,40,10.80
2010,04,10,16,41,10.80
2010,04,10,16,42,10.80
2010,04,10,16,43,10.80
2010,04,10,16,44,10.80
2010,04,10,16,45,10.70
2010,04,10,16,46,10.70
2010,04,10,16,47,10.70
2010,04,10,16,48,10.70
2010,04,10,16,49,10.70
2010,04,10,16,50,10.70
2010,04,10,16,51,10.70
2010,04,10,16,52,10.70
2010,04,10,16,53,10.70
2010,04,10,16,54,10.70
2010,04,10,16,55,10.70
2010,04,10,16,56,10.70
2010,04,10,16,57,10.70
2010,04,10,16,58,10.80
2010,04,10,16,59,10.80
2010,04,10,17,00,10.90
2010,04,10,17,01,10.90
2010,04,10,17,02,10.90
2010,04,10,17,03,10.90
2010,04,10,17,04,10.90
2010,04,10,17,05,11.00
2010,04,10,17,06,11.00
2010,04,10,17,07,11.10
2010,04,10,17,08,11.10
2010,04,10,17,09,11.10
2010,04,10,17,10,11.10
2010,04,10,17,11,11.10
2010,04,10,17,12,11.10
2010,04,10,17,13,11.10
2010,04,10,17,14,11.10
2010,04,10,17,15,11.10
2010,04,10,17,16,11.00
2010,04,10,17,17,10.90
2010,04,10,17,18,10.90
2010,04,10,17,19,10.90
2010,04,10,17,20,10.90
2010,04,10,17,21,10.80
2010,04,10,17,22,10.80
2010,04,10,17,23,10.80
2010,04,10,17,24,10.80
2010,04,10,17,25,10.80
2010,04,10,17,26,10.80
2010,04,10,17,27,10.90
2010,04,10,17,28,10.90
2010,04,10,17,29,10.90
2010,04,10,17,30,10.90
2010,04,10,17,31,10.90
2010,04,10,17,32,10.80
2010,04,10,17,33,10.80
2010,04,10,17,34,10.80
2010,04,10,17,35,10.80
2010,04,10,17,36,10.80
2010,04,10,17,37,10.80
2010,04,10,17,38,10.80
2010,04,10,17,39,10.80
2010,04,10,17,40,10.80
2010,04,10,17,41,10.80
2010,04,10,17,42,10.80
2010,04,10,17,43,10.80
2010,04,10,17,44,10.80
2010,04,10,17,45,10.80
2010,04,10,17,46,10.80
2010,04,10,17,47,10.80
2010,04,10,17,48,10.80
2010,04,10,17,49,10.80
2010,04,10,17,50,10.70
2010,04,10,17,51,10.70
2010,04,10,17,52,10.70
2010,04,10,17,53,10.70
2010,04,10,17,54,10.70
2010,04,10,17,55,10.70
2010,04,10,17,56,10.70
2010,04,10,17,57,10.70
2010,04,10,17,58,10.70
2010,04,10,17,59,10.80
2010,04,10,18,00,10.80
2010,04,10,18,01,10.80
2010,04,10,18,02,10.80
2010,04,10,18,03,10.80
2010,04,10,18,04,10.80
2010,04,10,18,05,10.80
2010,04,10,18,06,10.70
2010,04,10,18,07,10.70
2010,04,10,18,08,10.70
2010,04,10,18,09,10.70
2010,04,10,18,10,10.70
2010,04,10,18,11,10.70
2010,04,10,18,12,10.70
2010,04,10,18,13,10.60
2010,04,10,18,14,10.60
2010,04,10,18,15,10.60
2010,04,10,18,16,10.60
2010,04,10,18,17,10.60
2010,04,10,18,18,10.60
2010,04,10,18,19,10.60
2010,04,10,18,20,10.60
2010,04,10,18,21,10.60
2010,04,10,18,22,10.60
2010,04,10,18,23,10.60
2010,04,10,18,24,10.60
2010,04,10,18,25,10.60
2010,04,10,18,26,10.60
2010,04,10,18,27,10.60
2010,04,10,18,28,10.60
2010,04,10,18,29,10.60
2010,04,10,18,30,10.50
2010,04,10,18,31,10.50
2010,04,10,18,32,10.50
2010,04,10,18,33,10.50
2010,04,10,18,34,10.50
2010,04,10,18,35,10.50
2010,04,10,18,36,10.40
2010,04,10,18,37,10.40
2010,04,10,18,38,10.40
2010,04,10,18,39,10.40
2010,04,10,18,40,10.40